Location: Nebel
(54.6502°N, 8.3475°E)
Time: 23:28:07
(UTC+01:00)

Envisat - Pass Details

Date: 10 December 2022
Orbit: 763 x 765 km, 98.2° (Epoch: 01 February)

Event Time Altitude Azimuth Distance (km) Brightness Sun altitude
Rises 05:55:28 0° 11° (N) 3,248 6.3 -21.9°
Reaches altitude 10° 05:57:55 10° 3° (N) 2,318 5.4 -21.5°
Enters shadow 06:01:15 32° 330° (NNW) 1,314 3.9 -21.1°
